Total_Precipitation_Accumulation
1.21 1.11 0.98 0.87 0.78 0.70 0.68 0.71 0.73 0.73 0.72 0.75 0.75 0.68 0.66 0.59 0.51 0.49 0.44 0.42 0.45 0.60 0.88 1.18 1.44 1.71 1.92 1.98 1.97 1.84 1.75 1.61 1.46 1.35 1.30 1.33 1.45 1.55 1.61 1.57 1.60 1.62 1.60
1.35 1.25 1.11 1.04 0.96 0.85 0.76 0.78 0.82 0.83 0.79 0.75 0.71 0.68 0.66 0.59 0.51 0.51 0.51 0.50 0.47 0.53 0.77 1.04 1.25 1.50 1.83 2.09 2.20 2.13 1.95 1.87 1.80 1.70 1.53 1.46 1.49 1.59 1.69 1.76 1.59 1.52 1.49
1.38 1.21 1.12 1.07 1.05 1.02 0.95 0.89 0.86 0.93 0.88 0.81 0.75 0.73 0.70 0.64 0.58 0.57 0.58 0.56 0.55 0.53 0.63 0.86 1.08 1.29 1.55 1.95 2.31 2.46 2.23 2.10 2.09 2.05 1.85 1.70 1.59 1.64 1.67 1.80 1.85 1.76 1.62
1.42 1.37 1.23 1.13 1.11 1.12 1.11 1.07 0.95 0.92 0.92 0.90 0.85 0.81 0.79 0.76 0.66 0.63 0.67 0.64 0.62 0.58 0.56 0.68 0.86 1.06 1.37 1.69 2.02 2.38 2.47 2.37 2.33 2.31 2.18 2.01 1.80 1.74 1.76 1.81 1.93 1.97 1.91
1.37 1.36 1.29 1.24 1.26 1.24 1.17 1.14 1.07 1.03 0.98 0.94 0.94 0.92 0.90 0.89 0.83 0.77 0.76 0.74 0.70 0.65 0.62 0.63 0.72 0.81 1.04 1.36 1.72 2.10 2.42 2.52 2.47 2.43 2.34 2.24 2.08 1.90 1.88 1.92 1.96 2.09 2.16
1.41 1.44 1.37 1.32 1.33 1.31 1.29 1.30 1.26 1.16 1.10 1.10 1.13 1.08 1.05 1.01 0.92 0.82 0.80 0.81 0.76 0.71 0.72 0.72 0.72 0.70 0.80 1.02 1.37 1.75 2.18 2.47 2.59 2.61 2.57 2.51 2.41 2.27 2.11 2.08 2.07 2.17 2.37
1.55 1.56 1.47 1.38 1.37 1.29 1.19 1.14 1.25 1.28 1.22 1.19 1.21 1.13 1.03 0.99 0.91 0.80 0.82 0.91 0.95 0.94 0.92 0.94 0.93 0.83 0.77 0.87 1.02 1.30 1.73 2.20 2.59 2.75 2.75 2.71 2.70 2.65 2.52 2.36 2.32 2.37 2.52
1.64 1.70 1.69 1.56 1.41 1.34 1.26 1.14 1.10 1.18 1.19 1.17 1.24 1.26 1.12 1.02 0.88 0.74 0.75 0.83 0.91 1.02 1.07 1.06 1.07 1.07 0.96 0.87 0.80 0.90 1.14 1.61 2.21 2.75 2.93 2.95 3.08 3.14 3.03 2.80 2.66 2.70 2.79
1.56 1.52 1.61 1.71 1.66 1.49 1.34 1.21 1.14 1.09 1.12 1.10 1.10 1.35 1.34 1.07 0.82 0.66 0.62 0.68 0.72 0.78 0.85 0.92 1.00 1.07 1.11 1.06 0.93 0.82 0.85 1.16 1.68 2.35 3.00 3.32 3.53 3.77 3.77 3.45 3.19 3.06 3.02
1.63 1.55 1.57 1.64 1.69 1.59 1.44 1.34 1.26 1.17 1.14 1.14 1.08 1.05 1.07 1.04 1.09 0.88 0.62 0.59 0.59 0.60 0.65 0.73 0.80 0.88 0.98 1.05 1.06 1.04 1.00 1.03 1.40 1.91 2.62 3.29 3.80 4.26 4.55 4.28 3.82 3.47 3.30
1.67 1.61 1.60 1.64 1.64 1.56 1.46 1.38 1.29 1.24 1.18 1.13 1.11 1.06 0.97 0.87 0.88 1.00 0.78 0.57 0.59 0.57 0.58 0.67 0.74 0.78 0.83 0.91 0.96 1.02 1.10 1.10 1.31 1.63 2.04 2.67 3.38 4.15 4.74 4.79 4.45 4.06 3.75
1.76 1.67 1.62 1.61 1.57 1.49 1.42 1.37 1.33 1.28 1.22 1.15 1.10 1.05 1.05 1.04 0.91 0.94 0.88 0.61 0.57 0.56 0.59 0.66 0.75 0.80 0.86 0.95 1.03 1.20 1.21 1.22 1.34 1.55 1.67 2.05 2.62 3.41 4.31 4.84 4.80 4.56 4.30
1.76 1.65 1.57 1.57 1.57 1.51 1.43 1.38 1.37 1.35 1.32 1.32 1.26 1.16 1.05 0.97 0.93 1.02 1.09 0.85 0.67 0.56 0.57 0.63 0.67 0.77 0.90 1.00 1.07 1.23 1.21 1.22 1.28 1.41 1.47 1.56 1.84 2.46 3.36 4.31 4.85 4.86 4.70
1.75 1.69 1.68 1.66 1.60 1.57 1.57 1.50 1.40 1.36 1.37 1.36 1.29 1.25 1.23 1.07 1.00 1.06 1.19 1.30 1.19 0.81 0.63 0.57 0.55 0.66 0.83 0.96 1.10 1.27 1.17 1.22 1.20 1.30 1.40 1.43 1.48 1.74 2.30 3.19 4.14 4.83 4.93
1.73 1.71 1.68 1.70 1.69 1.69 1.76 1.77 1.64 1.49 1.44 1.36 1.28 1.26 1.28 1.18 1.10 1.06 1.08 1.29 1.63 1.44 0.87 0.56 0.53 0.59 0.75 0.93 1.14 1.17 1.13 1.28 1.31 1.30 1.37 1.43 1.49 1.59 1.84 2.23 2.97 3.90 4.68
1.73 1.72 1.69 1.63 1.60 1.63 1.74 1.86 1.81 1.64 1.57 1.47 1.37 1.32 1.29 1.23 1.18 1.13 1.13 1.17 1.37 1.61 1.26 0.62 0.54 0.58 0.74 0.91 1.12 1.13 1.11 1.27 1.30 1.34 1.34 1.40 1.50 1.59 1.75 1.95 2.31 3.01 3.84
1.71 1.71 1.67 1.63 1.58 1.58 1.63 1.74 1.77 1.77 1.72 1.60 1.53 1.47 1.35 1.27 1.30 1.25 1.22 1.23 1.25 1.43 1.46 0.78 0.57 0.63 0.79 0.93 1.03 1.06 1.08 1.13 1.14 1.27 1.33 1.40 1.41 1.48 1.62 1.81 2.01 2.40 3.07
1.44 1.58 1.67 1.69 1.64 1.55 1.59 1.71 1.73 1.76 1.78 1.71 1.63 1.57 1.47 1.42 1.40 1.34 1.38 1.35 1.26 1.26 1.44 1.16 0.76 0.70 0.77 0.87 0.95 1.03 1.09 1.12 1.11 1.23 1.29 1.37 1.46 1.52 1.60 1.73 1.90 2.07 2.45
1.50 1.51 1.60 1.65 1.65 1.66 1.65 1.64 1.68 1.72 1.75 1.73 1.72 1.74 1.67 1.63 1.59 1.52 1.52 1.51 1.43 1.34 1.38 1.42 1.06 0.84 0.86 0.95 1.08 1.14 1.17 1.24 1.25 1.35 1.38 1.37 1.49 1.59 1.60 1.70 1.86 1.99 2.09
1.69 1.71 1.66 1.66 1.69 1.76 1.94 1.98 1.87 1.82 1.79 1.75 1.74 1.78 1.81 1.83 1.80 1.79 1.85 1.81 1.79 1.79 1.70 1.65 1.38 1.11 1.05 1.06 1.21 1.30 1.30 1.28 1.35 1.37 1.47 1.43 1.50 1.58 1.60 1.61 1.65 1.72 1.89
1.83 1.83 1.85 1.78 1.78 1.91 2.22 2.38 2.20 2.07 1.97 1.88 1.79 1.77 1.80 1.95 2.12 2.29 2.41 2.31 2.22 2.29 2.21 2.10 1.84 1.55 1.36 1.34 1.41 1.36 1.42 1.37 1.41 1.41 1.41 1.35 1.32 1.32 1.40 1.54 1.68 1.73 1.82
1.94 1.93 1.86 1.81 1.75 1.87 2.36 2.51 2.25 2.01 1.87 1.88 1.86 1.77 1.78 1.90 2.00 2.17 2.35 2.34 2.34 2.53 2.62 2.47 2.21 1.90 1.52 1.39 1.47 1.64 1.76 1.84 1.78 1.49 1.47 1.51 1.41 1.44 1.45 1.47 1.71 1.79 1.85
1.83 1.85 1.81 1.76 1.70 1.74 2.24 2.42 2.22 1.83 1.65 1.65 1.65 1.65 1.67 1.72 1.87 1.75 1.91 1.98 2.00 2.13 2.32 2.44 2.45 2.03 1.73 1.60 1.86 2.09 2.09 2.11 1.84 1.61 1.77 1.95 1.77 1.70 1.61 1.68 1.87 1.77 1.84
1.69 1.68 1.63 1.58 1.54 1.64 2.12 2.38 2.22 1.69 1.51 1.49 1.47 1.48 1.50 1.51 1.64 1.85 1.91 1.84 1.67 1.64 1.82 1.99 2.16 2.03 1.92 1.98 2.33 2.68 2.75 2.76 2.41 2.04 1.97 2.27 2.05 1.96 1.87 1.82 1.91 1.82 1.83
1.45 1.49 1.48 1.43 1.41 1.44 1.82 2.20 2.13 1.65 1.59 1.51 1.46 1.48 1.51 1.42 1.68 2.01 2.05 1.94 1.69 1.52 1.61 1.88 2.10 2.21 2.34 2.52 2.81 3.22 3.38 3.47 3.24 2.65 2.30 2.37 2.24 2.13 2.12 2.07 2.02 1.97 1.87
1.28 1.30 1.37 1.38 1.37 1.38 1.63 1.98 2.11 1.70 1.64 1.54 1.47 1.50 1.72 1.70 1.84 1.97 1.94 2.00 1.98 1.64 1.45 1.53 1.65 1.80 1.89 2.11 2.54 2.79 3.06 3.38 3.29 3.03 2.45 2.39 2.42 2.44 2.68 2.30 2.00 1.87 1.84